Regional Weather Roundup
Issued by NWS Wakefield, VA

Home | Current Version | Previous Version | Graphics & Text | Print | Product List | Glossary On
Versions: 1 2 3 4 5 6 7 8 9 10 11 12 13 14 15 16 17 18 19 20 21 22 23 24 25 26 27 28 29 30 31 32 33 34 35 36 37 38 39 40 41 42 43 44 45 46 47 48 49 50
000
ASUS41 KAKQ 162210
RWRAKQ

REGIONAL WEATHER ROUNDUP
NATIONAL WEATHER SERVICE WAKEFIELD VA
600 PM EDT TUE SEP 16 2014

Note: "fair" indicates few or no clouds below 12,000 feet with no
significant weather and/or obstructions to visibility. * = Denotes
station may not report precipitation (e.g., rain,snow,etc.),
thunder or fog.

VAZ042-051-052>054-056-162300-
NORTHERN VIRGINIA

CITY           SKY/WX    TMP DP  RH WIND       PRES   REMARKS
WASH NATIONAL  MOSUNNY   77  50  38 N14       30.00R
DULLES         MOSUNNY   74  51  44 N9        30.01R
FORT BELVOIR   SUNNY     76  51  41 NW8       29.99S
QUANTICO       SUNNY     76  53  44 N8        29.99S
FREDERICKSBRG* SUNNY     76  52  42 N7        29.98S
STAFFORD*      SUNNY     74  52  46 N6        30.03S
WARRENTON      SUNNY     76  58  53 NW8       29.99S
CULPEPER*      SUNNY     75  52  43 N8        30.00S
MANASSAS*      SUNNY     75  52  43 N10       29.99
LEESBURG*      SUNNY     72  54  53 N7        30.02S
WINCHESTER     PTSUNNY   72  46  40 N5        30.01S
FRONT ROYAL*   PTCLDY    72  48  43 N3        30.00S
LURAY*         CLEAR     73  50  43 W7        30.01S
$$

VAZ048-049-060>072-079>083-162300-
CENTRAL AND SOUTH CENTRAL VIRGINIA...AND NORTH CENTRAL NORTH CAROLINA

CITY           SKY/WX    TMP DP  RH WIND       PRES   REMARKS
RICHMOND       PTSUNNY   77  61  57 NE8       29.97S
CHESTERFIELD*  CLOUDY    75  55  50 N7        29.98S
PETERSBURG*    MOSUNNY   79  58  48 W3        29.96S
HANOVER        PTSUNNY   74  59  59 N5        29.99S
TAPPAHANNOCK*  MOSUNNY   76  53  44 N6        29.99S
CHARLOTTSVILLE MOSUNNY   73  56  54 N5        29.99S
ORANGE*        SUNNY     73  50  43 NW5       30.01S
LOUISA*        PTSUNNY   75  55  50 NE6       29.98S
FARMVILLE*     PTSUNNY   79  61  53 SE5       29.95S
CREWE*         CLOUDY    81  63  54 CALM      29.96S
FORT PICKETT*  CLEAR     78  62  56 CALM      29.97S
LUNENBURG*     CLEAR     78  64  62 CALM      29.97S
SOUTH HILL*    MOSUNNY   75  66  73 CALM      30.01F
LAWRENCEVILLE* PTCLDY    77  65  68 CALM      29.96S
ROANOKE RAPIDS CLEAR     79  61  53 CALM      29.96S
RALEIGH        PTSUNNY   79  62  56 NE6       29.96S
$$

VAZ088>098-162300-
SOUTHEAST VIRGINIA

CITY           SKY/WX    TMP DP  RH WIND       PRES   REMARKS
NORFOLK        MOSUNNY   76  61  59 NE6       29.95F
VIRGINIA BEACH PTSUNNY   77  61  57 NE9       29.95F
NORFOLK NAVAL  PTSUNNY   78  63  59 NE9       29.97F
WEST POINT*    CLOUDY    74  62  64 NE3       29.99R
NEWPORT NEWS   PTSUNNY   78  64  61 E9        29.96S
LANGLEY AFB    MOSUNNY   75  64  67 E8        29.95F
FORT EUSTIS    SUNNY     78  58  50 CALM      29.94F
WILLIAMSBURG*  PTSUNNY   79  64  61 CALM      29.97S
HR EXEC AP*    CLEAR     79  64  61 CALM      29.97F
FRANKLIN*        N/A     81  59  47 CALM      29.96S
WAKEFIELD      SUNNY     81  62  52 CALM      29.96S
$$

VAZ020-022-025-037-045-162300-
WEST CENTRAL AND SOUTHWEST VIRGINIA

CITY           SKY/WX    TMP DP  RH WIND       PRES   REMARKS
STAUNTON*      MOSUNNY   74  48  39 N9        30.03S
HOT SPRINGS VA CLOUDY    58  42  55 NW6       30.12S
LYNCHBURG      MOSUNNY   77  60  55 CALM      29.99F
DANVILLE       CLOUDY    76  64  66 NE6       29.98S
SOUTH BOSTON*  NOT AVBL
MARTINSVILLE   CLOUDY    74  65  74 NE3       30.02S
ROANOKE        MOSUNNY   77  56  48 NW8       30.01F
BLACKSBURG     SUNNY     72  61  68 NW6       30.06F
DUBLIN*        SUNNY     73  58  60 W7        30.06S
MARION*        PTSUNNY   70  58  66 NW3       30.08F
HILLSVILLE*    MOSUNNY   68  60  75 N5        30.06F
RICHLANDS*     MOCLDY    70  59  69 NW5       30.07F
WISE*          MOSUNNY   68  55  64 NW3       30.09S
ABINGDON*      PTSUNNY   72  62  72 CALM      30.05F
$$

MDZ021>025-VAZ099-100-162300-
SOUTHERN MARYLAND AND THE DELMARVA PENINSULA

CITY           SKY/WX    TMP DP  RH WIND       PRES   REMARKS
PATUXENT RIVER MOSUNNY   75  55  49 NE10      29.98R
BAY BRIDGE APT   N/A     72  52  49 N7        29.99S
LEONARDTOWN    SUNNY     73  50  43 NW3       30.00S
DOVER          SUNNY     72  55  55 NW9       29.97R
GEORGETOWN     MOSUNNY   73  57  57 NE12      29.98R
EASTON         MOSUNNY   75  57  53 N7        30.02S
CAMBRIDGE      SUNNY     77  55  47 N7        29.98S
SALISBURY      CLOUDY    77  55  46 N6        29.98R
OCEAN CITY     CLOUDY    74  56  53 NE9       29.97R
WALLOPS ISLAND MOSUNNY   76  59  55 N6        29.98R
ACCOMACK*      CLOUDY    72  57  60 NW3       29.98R
$$

NCZ012>017-030>032-162300-
EASTERN NORTH CAROLINA

CITY           SKY/WX    TMP DP  RH WIND       PRES   REMARKS
ELIZABETH CITY MOSUNNY   77  60  55 E8        29.96S
AHOSKIE*       PTSUNNY   75  69  81 CALM      29.96S
EDENTON*       NOT AVBL
CURRITUCK*     PTSUNNY   76  60  57 NE5       29.97S
KILL DEVIL HLS MOSUNNY   76  65  70 NE5       29.96S
MANTEO         MOSUNNY   76  66  69 NE10      29.97R
CAPE HATTERAS  SUNNY     77  69  76 SW3       29.95S
TARBORO*       MOCLDY    82  66  58 CALM      29.96F
GOLDSBORO      MOSUNNY   83  67  59 CALM      29.94S
WASHINGTON     SUNNY     80  65  59 CALM      29.96S
GREENVILLE     MOSUNNY   81  68  65 N3        29.98S
NEW BERN       SUNNY     84  65  52 NW7       29.96S
WILMINGTON     SUNNY     81  70  69 SE7       29.95S
$$

VAZ048-162300-
ELSEWHERE

CITY           SKY/WX    TMP DP  RH WIND       PRES   REMARKS
HARRISBURG PA  PTSUNNY   70  48  45 NW7       30.00S
BALTIMORE      PTSUNNY   73  52  47 N9        29.99R
ANNAPOLIS      SUNNY     74  53  48 NW6       29.99R
ANDREWS AFB    SUNNY     73  52  46 N8        29.99S
WILMINGTON DE  PTSUNNY   73  53  49 N8        29.99S
PHILADELPHIA   PTSUNNY   72  51  47 N10       29.99R
WILDWOOD NJ*   PTSUNNY   72  54  53 NW3       29.98S
ATLANTIC CITY  PTSUNNY   71  56  58 N6        29.97R
GREENSBORO     TSTM      70  64  81 NE8       29.96R
ROCKY MOUNT    SUNNY     81  64  56 N3        29.96F
FAYETTEVILLE   SUNNY     84  66  54 SE7       29.94F
CHARLOTTE      MOSUNNY   82  65  56 SW5       29.95F
$$

VAZ100-162300-
MARINE

STATION/POSITION TIME  TEMP    WIND        PRES    WAVE   SWELL
                       AIR SEA DIR/SP/G            HT/PER HT/PER
                 (UTC) (F)     (DEG/KT/KT) (MB)    (FT/S) (FT/S)
44066 TX TWR #4  2200   67 73   40/ 10/ 12 1014.1R   2/13   2/13
CAPE MAY NJ      2200   74 76  330/  5/  9 1014.4R
LEWES DE         2200   72 73   10/ 10/ 11 1014.7R
15NM E FENWICK I 2100   72 72              1014.2R   2/ 4
OCEAN-CITY-INLET 2200   74 72   50/  4/ 10 1014.5R
WACHAPREAGUE VA  2200   74 76  350/  3/  5 1015.0R
THOMAS POINT MD  2200   73 75  360/ 11/ 13 1016.3R
GOOSES REEF MD   2200   75      10/ 10/ 12 1015.6S
COVE POINT MD    2200   74      10/ 10/ 14 1015.0S
SOLOMONS ISLAND  2200      77                N/A
BISHOPS HEAD MD  2200   74 77  330/  8/ 11 1014.8R
PINEY POINT MD   2200          360/  5/  7   N/A
POTOMAC MD       2200   74      20/ 10/ 12 1014.5S
CAMBRIDGE MD     2200   73 75  340/  9/ 11 1014.9R
LEWISETTA VA     2200   74 74   30/  4/  6 1014.8R
RAPPAHANNOCK LGT 2200          360/ 12/ 14 1015.4S
STINGRAY PT      2200   74      40/ 12/ 14   N/A
YORK RVR RNG VA  2200   74      70/ 11/ 12 1014.2S
YORKTOWN VA      2200   74 77   80/ 11/ 12 1014.4R
JAMESTOWN VA     2200   77        CALM       N/A
DOMINION TERM VA 2200   76      90/  1/  4 1014.4F
KIPTOPEKE VA     2200      80   30/  3/  6   N/A
CHES BAY BRIDGE  2200   74 77   30/  7/  8 1014.0F
CAPE HENRY VA    2200   75      40/  5/  6 1013.3F
CHESAPEAKE LGHT  2100   74      30/  5/  5 1015.5F
WILLOUBY STN VA  2200   74      60/  6/  7 1013.3S
S CRANEY ISL VA  2200          350/  3/  4 1014.0F
CAPE HENRY BUOY  2100      76                N/A     1/13   2/13
1ST LANDING BUOY 2200   75      20/  6/  6 1014.2F
CAPE CHARLES BUO 2200      76                N/A     1/13   2/13
OFFSHORE WE BUOY 2200      76                N/A     2/13   2/13
64NM E OF VA BCH 2200   74 79  340/ 14/ 16 1014.1S   2/13   2/13
DUCK PIER NC     2200   76 77   20/ 11/ 13 1014.1R
44100 DUCK FRF   2100      75                N/A     2/14   2/14
44056 DUCK FRF   2100                        N/A     2/13   2/13
OREGON INLET NC  2200   76 76   30/  8/ 10 1014.6R
HATTERAS NC      2200   79 78  230/  4/  6 1014.6S
DIAMOND SHLS NC  2200   78     280/  2/  4 1014.4R   2/ 8   2/ 8
CAPE LOOKOUT NC  2100   78     180/  7/  8 1014.2F
$$



USA.gov is the U.S. government's official web portal to all federal, state and local government web resources and services.